AZU9017 SBAT-SBSI

Flight info

Callsign AZU9017
Flight time 0h 32m
Altitude 12000
Route DARBA/N0328F110
Aircraft A21N/M-SDE3FGIRWY/LB1

Departure

Time 2026-05-01 15:01
Airport Piloto Osvaldo Marques Dias Airport (SBAT)

Arrival

Time 2026-05-01 15:33
Airport Presidente João Batista Figueiredo Airport (SBSI)
Time Latitude Longitude Altitude Speed Heading
2026-05-01 14:32 -9.87260 -56.10639 950 ft 0 kts 107°
2026-05-01 14:52 -9.87244 -56.10660 949 ft 2 kts 160°
2026-05-01 14:52 -9.87229 -56.10662 949 ft 1 kts 193°
2026-05-01 14:52 -9.87220 -56.10659 949 ft 0 kts 199°
2026-05-01 14:53 -9.87221 -56.10659 949 ft 0 kts 199°
2026-05-01 14:54 -9.87223 -56.10660 949 ft 0 kts 205°
2026-05-01 14:54 -9.87229 -56.10666 949 ft 2 kts 235°
2026-05-01 14:55 -9.87242 -56.10696 949 ft 5 kts 248°
2026-05-01 14:55 -9.87257 -56.10733 949 ft 5 kts 249°
2026-05-01 14:55 -9.87263 -56.10748 949 ft 0 kts 249°
2026-05-01 14:57 -9.87274 -56.10778 949 ft 5 kts 249°
2026-05-01 14:57 -9.87288 -56.10815 949 ft 6 kts 249°
2026-05-01 14:58 -9.87305 -56.10857 949 ft 6 kts 242°
2026-05-01 14:58 -9.87345 -56.10888 949 ft 8 kts 201°
2026-05-01 14:58 -9.87409 -56.10910 949 ft 10 kts 198°
2026-05-01 14:58 -9.87478 -56.10932 949 ft 10 kts 198°
2026-05-01 14:59 -9.87552 -56.10957 949 ft 11 kts 198°
2026-05-01 14:59 -9.87627 -56.10981 949 ft 11 kts 190°
2026-05-01 14:59 -9.87694 -56.10983 950 ft 8 kts 226°
2026-05-01 14:59 -9.87670 -56.10997 950 ft 5 kts 17°
2026-05-01 15:00 -9.87537 -56.10952 949 ft 56 kts 19°
2026-05-01 15:00 -9.86915 -56.10743 949 ft 128 kts 18°
2026-05-01 15:00 -9.85877 -56.10400 1047 ft 173 kts 20°
2026-05-01 15:01 -9.84748 -56.10065 1673 ft 173 kts 18°
2026-05-01 15:01 -9.83575 -56.09742 2349 ft 175 kts 17°
2026-05-01 15:01 -9.82403 -56.09422 2925 ft 177 kts 17°
2026-05-01 15:01 -9.81185 -56.09075 3282 ft 187 kts 18°
2026-05-01 15:02 -9.79898 -56.08615 3560 ft 203 kts 33°
2026-05-01 15:02 -9.79228 -56.07946 3734 ft 210 kts 63°
2026-05-01 15:02 -9.79197 -56.05959 4078 ft 234 kts 118°
2026-05-01 15:02 -9.80427 -56.04791 4423 ft 257 kts 154°
2026-05-01 15:03 -9.82248 -56.04565 4880 ft 277 kts 185°
2026-05-01 15:03 -9.84150 -56.04977 5611 ft 282 kts 191°
2026-05-01 15:03 -9.86053 -56.05429 6308 ft 285 kts 189°
2026-05-01 15:03 -9.88017 -56.05834 7002 ft 287 kts 188°
2026-05-01 15:04 -9.89986 -56.06175 7709 ft 290 kts 186°
2026-05-01 15:04 -9.92003 -56.06479 8567 ft 293 kts 186°
2026-05-01 15:04 -9.94010 -56.06752 9516 ft 294 kts 186°
2026-05-01 15:04 -9.96022 -56.07011 10488 ft 295 kts 187°
2026-05-01 15:05 -9.98088 -56.07269 11184 ft 303 kts 187°
2026-05-01 15:05 -10.00206 -56.07534 11595 ft 309 kts 186°
2026-05-01 15:05 -10.02357 -56.07803 11826 ft 313 kts 185°
2026-05-01 15:05 -10.04544 -56.08072 11913 ft 317 kts 184°
2026-05-01 15:06 -10.06753 -56.08340 11975 ft 319 kts 183°
2026-05-01 15:06 -10.08971 -56.08601 12016 ft 321 kts 183°
2026-05-01 15:06 -10.11195 -56.08860 12023 ft 321 kts 183°
2026-05-01 15:06 -10.13468 -56.09126 12019 ft 335 kts 183°
2026-05-01 15:07 -10.15850 -56.09404 12016 ft 350 kts 184°
2026-05-01 15:07 -10.18281 -56.09692 12023 ft 358 kts 184°
2026-05-01 15:07 -10.20776 -56.09990 12020 ft 358 kts 184°
2026-05-01 15:07 -10.23280 -56.10290 12011 ft 359 kts 184°
2026-05-01 15:08 -10.25764 -56.10589 12010 ft 359 kts 184°
2026-05-01 15:08 -10.28237 -56.10886 12012 ft 359 kts 184°
2026-05-01 15:08 -10.30722 -56.11182 12013 ft 358 kts 184°
2026-05-01 15:08 -10.33206 -56.11479 12009 ft 358 kts 184°
2026-05-01 15:09 -10.35683 -56.11773 12005 ft 358 kts 184°
2026-05-01 15:09 -10.38182 -56.12069 12011 ft 358 kts 184°
2026-05-01 15:09 -10.40660 -56.12364 12012 ft 358 kts 184°
2026-05-01 15:09 -10.43154 -56.12661 12015 ft 358 kts 184°
2026-05-01 15:10 -10.45645 -56.12959 12009 ft 359 kts 184°
2026-05-01 15:10 -10.50558 -56.12877 12002 ft 351 kts 163°
2026-05-01 15:10 -10.52941 -56.12255 12008 ft 352 kts 162°
2026-05-01 15:11 -10.55336 -56.11615 12007 ft 352 kts 162°
2026-05-01 15:11 -10.60067 -56.10360 12006 ft 351 kts 162°
2026-05-01 15:11 -10.62454 -56.09734 12007 ft 351 kts 162°
2026-05-01 15:12 -10.64835 -56.09110 11997 ft 351 kts 162°
2026-05-01 15:12 -10.69579 -56.07875 11999 ft 352 kts 162°
2026-05-01 15:12 -10.71968 -56.07253 11996 ft 352 kts 162°
2026-05-01 15:13 -10.79134 -56.05389 12004 ft 353 kts 162°
2026-05-01 15:14 -10.83898 -56.04149 12002 ft 352 kts 162°
2026-05-01 15:14 -10.86253 -56.03538 12003 ft 352 kts 162°
2026-05-01 15:14 -10.91028 -56.02298 12005 ft 352 kts 162°
2026-05-01 15:15 -10.95760 -56.01066 12002 ft 352 kts 162°
2026-05-01 15:15 -11.00536 -55.99822 12001 ft 352 kts 162°
2026-05-01 15:16 -11.05304 -55.98579 12004 ft 352 kts 162°
2026-05-01 15:16 -11.10055 -55.97342 12009 ft 352 kts 162°
2026-05-01 15:17 -11.14817 -55.96100 12009 ft 352 kts 162°
2026-05-01 15:18 -11.21960 -55.94238 12012 ft 352 kts 162°
2026-05-01 15:18 -11.24330 -55.93618 12012 ft 352 kts 162°
2026-05-01 15:19 -11.31478 -55.91753 12013 ft 352 kts 162°
2026-05-01 15:19 -11.36263 -55.90503 12013 ft 352 kts 162°
2026-05-01 15:19 -11.38634 -55.89883 12017 ft 353 kts 162°
2026-05-01 15:20 -11.43415 -55.88634 12019 ft 353 kts 162°
2026-05-01 15:20 -11.45791 -55.88013 12020 ft 353 kts 162°
2026-05-01 15:20 -11.48187 -55.87387 12023 ft 353 kts 162°
2026-05-01 15:21 -11.50568 -55.86765 12022 ft 353 kts 162°
2026-05-01 15:21 -11.52954 -55.86140 12018 ft 353 kts 162°
2026-05-01 15:21 -11.55315 -55.85522 12020 ft 353 kts 162°
2026-05-01 15:21 -11.57682 -55.84903 11925 ft 345 kts 162°
2026-05-01 15:22 -11.62233 -55.83713 11447 ft 327 kts 162°
2026-05-01 15:22 -11.64424 -55.83139 11213 ft 319 kts 162°
2026-05-01 15:22 -11.66553 -55.82581 10990 ft 311 kts 162°
2026-05-01 15:23 -11.68643 -55.82031 10790 ft 312 kts 162°
2026-05-01 15:23 -11.70753 -55.81476 10571 ft 311 kts 162°
2026-05-01 15:23 -11.72863 -55.80922 10268 ft 310 kts 163°
2026-05-01 15:23 -11.74927 -55.80381 10002 ft 304 kts 163°
2026-05-01 15:24 -11.76961 -55.79848 9796 ft 296 kts 163°
2026-05-01 15:24 -11.78954 -55.79325 9443 ft 293 kts 163°
2026-05-01 15:24 -11.80918 -55.78810 9100 ft 290 kts 163°
2026-05-01 15:24 -11.82862 -55.78300 8764 ft 287 kts 163°
2026-05-01 15:25 -11.84812 -55.77788 8426 ft 285 kts 163°
2026-05-01 15:25 -11.86708 -55.77290 8088 ft 282 kts 163°
2026-05-01 15:25 -11.88608 -55.76790 7744 ft 279 kts 163°
2026-05-01 15:25 -11.90486 -55.76295 7403 ft 278 kts 163°
2026-05-01 15:26 -11.92361 -55.75801 7061 ft 275 kts 163°
2026-05-01 15:26 -11.94206 -55.75317 6726 ft 272 kts 163°
2026-05-01 15:26 -11.96031 -55.74837 6395 ft 270 kts 163°
2026-05-01 15:26 -11.97853 -55.74357 6066 ft 267 kts 163°
2026-05-01 15:27 -11.99634 -55.73889 5744 ft 263 kts 163°
2026-05-01 15:27 -12.01383 -55.73387 5403 ft 260 kts 155°
2026-05-01 15:27 -12.02799 -55.72317 5045 ft 251 kts 124°
2026-05-01 15:28 -12.03898 -55.69100 4857 ft 232 kts 102°
2026-05-01 15:28 -12.04279 -55.67554 4804 ft 221 kts 102°
2026-05-01 15:28 -12.04653 -55.66068 4704 ft 209 kts 103°
2026-05-01 15:29 -12.04791 -55.63314 4316 ft 192 kts 54°
2026-05-01 15:29 -12.03741 -55.62564 4216 ft 184 kts 21°
2026-05-01 15:29 -12.01339 -55.62029 3652 ft 168 kts 13°
2026-05-01 15:30 -11.99058 -55.61467 3223 ft 167 kts 17°
2026-05-01 15:31 -11.94892 -55.60336 2397 ft 146 kts 18°
2026-05-01 15:31 -11.92932 -55.59809 2014 ft 145 kts 18°
2026-05-01 15:32 -11.90963 -55.59315 1583 ft 144 kts 18°
2026-05-01 15:32 -11.89044 -55.58780 1230 ft 142 kts 17°
2026-05-01 15:33 -11.87844 -55.58456 1224 ft 11 kts 21°
2026-05-01 15:34 -11.87884 -55.58301 1224 ft 6 kts 181°